Location: Unspecified
(0.0000°N, 0.0000°E)
Time: 02:41:00
(UTC+00:00)

OBJECT C - Visible Passes

Search period start: 16 May 2026 00:00
Search period end: 26 May 2026 00:00
Orbit: 484 x 497 km, 97.4° (Epoch: 14 May)

Date Brightness Start Highest point End Pass type
(mag) Time Alt. Az. Time Alt. Az. Time Alt. Az.
16 May ? 04:18:44 10° ESE 04:20:10 12° E 04:21:35 10° NE visible
17 May ? 05:27:32 10° S 05:30:59 41° W 05:34:26 10° NNW visible
18 May ? 05:04:51 10° SSE 05:08:30 77° E 05:12:08 10° N visible
19 May ? 04:42:46 10° SE 04:46:00 30° E 04:49:14 10° NNE visible
20 May ? 04:21:39 10° ESE 04:23:30 13° E 04:25:20 10° NE visible
21 May ? 05:30:53 10° SSW 05:34:15 36° WSW 05:37:37 10° NNW visible
22 May ? 05:08:03 10° SSE 05:11:43 88° E 05:15:21 10° N visible
23 May ? 04:45:49 10° SE 04:49:09 34° E 04:52:28 10° NNE visible
24 May ? 04:24:26 10° ESE 04:26:35 15° E 04:28:43 10° NE visible
